Hourly Data Report for July 06, 2005

TORONTO CITY
ONTARIO

43°40'00.000" N
79°24'00.000" W
112.50 m
6158355
71508
XTO

Download Data

Hourly Data (July 2005)
Hourly Data Report for July 6, 2005
TIME
LST
Temp Definition
°C
Dew Point Definition
°C
Rel Hum Definition
%
Precip. Amount Definition
mm

Wind Dir Definition
10's deg

Wind Spd Definition
km/h
Visibility Definition
km
Stn Press Definition
kPa
Hmdx Definition


Wind Chill Definition


Weather Definition


00:00 20.8 17.8 83   LegendMM LegendMM   100.11 27   LegendNANA
01:00 20.2 17.0 82   LegendMM LegendMM   100.16 25   LegendNANA
02:00 19.8 16.6 82   LegendMM LegendMM   100.19     LegendNANA
03:00 19.5 16.3 82   LegendMM LegendMM   100.18     LegendNANA
04:00 19.4 15.9 80   LegendMM LegendMM   100.21     LegendNANA
05:00 19.0 15.6 81   LegendMM LegendMM   100.26     LegendNANA
06:00 19.1 15.8 81   LegendMM LegendMM   100.31     LegendNANA
07:00 19.2 15.3 78   LegendMM LegendMM   100.35     LegendNANA
08:00 20.1 15.8 76   LegendMM LegendMM   100.39 25   LegendNANA
09:00 21.2 15.5 70   LegendMM LegendMM   100.38 25   LegendNANA
10:00 21.8 15.7 68   LegendMM LegendMM   100.41 26   LegendNANA
11:00 22.0 15.7 67   LegendMM LegendMM   100.43 26   LegendNANA
12:00 22.7 16.3 67   LegendMM LegendMM   100.49 28   LegendNANA
13:00 23.5 16.6 65   LegendMM LegendMM   100.48 29   LegendNANA
14:00 23.5 16.5 65   LegendMM LegendMM   100.45 28   LegendNANA
15:00 23.3 16.9 67   LegendMM LegendMM   100.43 29   LegendNANA
16:00 23.3 17.2 69   LegendMM LegendMM   100.43 29   LegendNANA
17:00 23.4 17.4 69   LegendMM LegendMM   100.39 29   LegendNANA
18:00 23.3 17.0 68   LegendMM LegendMM   100.37 29   LegendNANA
19:00 23.0 16.4 66   LegendMM LegendMM   100.37 28   LegendNANA
20:00 22.5 16.3 68   LegendMM LegendMM   100.38 27   LegendNANA
21:00 22.0 16.5 71   LegendMM LegendMM   100.42 27   LegendNANA
22:00 21.9 16.9 73   LegendMM LegendMM   100.45 27   LegendNANA
23:00 22.3 17.1 72   LegendMM LegendMM   100.48 28   LegendNANA

Notes on Data Quality.

Legend

  • E = Estimated
  • M = Missing
  • NA = Not Available*
  • [empty] = Indicates an unobserved value
Date modified: